Location: Palomar Mountain Lodge
(33.3110°N, 116.8495°W)
Time: 19:13:18
(UTC-07:00)

Cosmos 1515 Rocket - Pass Details

Date: 12 July 2018
Orbit: 605 x 631 km, 82.5° (Epoch: 23 September)

Event Time Altitude Azimuth Distance (km) Brightness Sun altitude
Rises 21:45:26 0° 351° (N) 2,924 7.9 -19.0°
Reaches altitude 10° 21:47:41 10° 350° (N) 2,013 7.0 -19.3°
Maximum altitude 21:52:08 75° 266° (W) 653 3.7 -20.0°
Enters shadow 21:53:55 36° 187° (S) 1,005 4.3 -20.3°
